HS2LXA-WX Weather Reports


Display with metric or nautical units.
time (UTC)temp
F
wind
direction
speed
MPH
gust
MPH
rain 1hr
in
rain 24hr
in
rain mn
in
humidity
%
barometer
mb
20260505040415 93 0 8.0 18.0 0.00 0.00 0.04 65 1013.2
20260505035415 93 0 6.0 14.0 0.00 0.00 0.04 65 1013.1
20260505034415 91 0 2.0 5.0 0.00 0.00 0.04 69 1013.1
20260505033415 90 0 11.0 24.0 0.00 0.00 0.04 71 1013.2
20260505032415 90 0 3.0 7.0 0.00 0.00 0.04 73 1013.1
20260505030900 91 112 9.0 21.0 0.00 0.00 0.04 69 1013.2
20260505025859 90 225 0.0 0.0 0.00 0.00 0.04 71 1013.1
20260505024856 90 112 0.0 0.0 0.00 0.00 0.04 73 1013.2
20260505023856 89 112 0.0 0.0 0.00 0.00 0.04 69 1013.2
20260505022856 89 225 3.0 7.0 0.00 0.00 0.04 72 1013.2
20260505021856 88 22 4.0 10.0 0.00 0.00 0.04 76 1013.1
20260505020855 87 112 6.0 13.0 0.00 0.00 0.04 77 1013.1
20260505015855 87 112 0.0 0.0 0.00 0.00 0.04 78 1013.2
20260505014854 87 112 3.0 7.0 0.00 0.00 0.04 77 1013.1
20260505013854 87 112 0.0 0.0 0.00 0.00 0.04 76 1013.2
20260505012854 86 112 0.0 0.0 0.00 0.00 0.04 78 1013.2
20260505011850 86 112 2.0 5.0 0.00 0.00 0.04 77 1013.1
20260505010851 85 112 0.0 1.0 0.00 0.00 0.04 78 1013.1
20260505005218 83 112 0.0 1.0 0.00 0.00 0.04 83 1013.2
20260505003338 85 112 12.0 28.0 0.00 0.00 0.04 77 1013.1
20260505002337 84 112 0.0 0.0 0.00 0.00 0.04 80 1013.2
20260505001338 85 112 1.0 2.0 0.00 0.00 0.04 79 1013.2
20260505000338 84 0 1.0 3.0 0.00 0.00 0.04 79 1013.2
20260504235337 85 0 0.0 0.0 0.00 0.00 0.04 79 1013.1
20260504234337 85 270 9.0 22.0 0.00 0.00 0.04 79 1013.2
20260504233338 85 0 2.0 4.0 0.00 0.00 0.04 76 1013.1
20260504232337 85 225 0.0 0.0 0.00 0.00 0.04 76 1013.2
20260504231337 85 112 0.0 0.0 0.00 0.00 0.04 75 1013.1
20260504230337 85 112 0.0 0.0 0.00 0.00 0.04 75 1013.2
20260504225337 86 112 0.0 0.0 0.00 0.00 0.04 75 1013.2
20260504224337 86 112 0.0 0.0 0.00 0.00 0.04 74 1013.2
20260504223337 86 225 0.0 0.0 0.00 0.00 0.04 75 1013.2
20260504222337 86 90 0.0 0.0 0.00 0.00 0.04 74 1013.2
20260504221336 86 22 0.0 0.0 0.00 0.00 0.04 74 1013.1
20260504220336 86 22 0.0 0.0 0.00 0.00 0.04 75 1013.1
20260504215336 86 0 0.0 0.0 0.00 0.00 0.04 75 1013.1
20260504214335 86 0 0.0 0.0 0.00 0.00 0.04 74 1013.2
20260504213336 86 112 0.0 0.0 0.00 0.00 0.04 74 1013.1
20260504212336 85 225 0.0 0.0 0.00 0.00 0.04 75 1013.2
20260504211336 86 112 0.0 0.0 0.00 0.00 0.04 75 1013.2
20260504210334 85 112 6.0 13.0 0.00 0.00 0.04 76 1013.2
20260504205334 84 0 8.0 19.0 0.00 0.00 0.04 78 1013.2
20260504204334 86 90 3.0 7.0 0.00 0.00 0.04 75 1013.1
20260504203334 85 0 0.0 0.0 0.00 0.00 0.04 76 1013.2
20260504202334 86 270 0.0 0.0 0.00 0.00 0.04 74 1013.1
20260504201334 86 0 3.0 7.0 0.00 0.00 0.04 75 1013.1
20260504200333 86 112 0.0 0.0 0.00 0.00 0.04 74 1013.2
20260504195333 87 225 0.0 0.0 0.00 0.00 0.04 73 1013.1
20260504194334 86 0 12.0 27.0 0.00 0.00 0.04 75 1013.1
20260504193333 87 225 0.0 0.0 0.00 0.00 0.04 73 1013.1
20260504192333 87 202 0.0 0.0 0.00 0.00 0.04 73 1013.1
20260504191034 86 22 3.0 8.0 0.00 0.00 0.04 76 1013.1
20260504190029 87 225 0.0 0.0 0.00 0.00 0.04 73 1013.1
20260504185029 87 225 0.0 0.0 0.00 0.00 0.04 72 1013.2
20260504184029 87 0 2.0 5.0 0.00 0.00 0.04 72 1013.1
20260504181349 87 0 0.0 0.0 0.00 0.00 0.04 71 1013.2
20260504175741 87 112 3.0 7.0 0.02 0.00 0.04 72 1013.1
20260504174742 87 0 0.0 0.0 0.02 0.00 0.04 70 1013.2
20260504173421 87 0 0.0 2.0 0.01 0.00 0.02 70 1013.1
20260504172421 88 22 7.0 15.0 0.01 0.00 0.02 69 1013.1
20260504171421 88 270 0.0 0.0 0.01 0.00 0.02 69 1013.2
20260504170236 88 0 0.0 0.0 0.00 0.00 0.00 68 1013.2
20260504160237 86 225 0.0 1.0 0.01 0.02 0.77 69 1013.2
20260504150159 88 90 0.0 0.0 0.00 0.00 0.00 78 1013.2
20260504141319 88 112 0.0 0.0 0.00 0.00 0.00 77 1013.2
20260504140318 88 22 0.0 0.0 0.00 0.00 0.00 76 1013.1
20260504130553 89 0 0.0 0.0 0.00 0.00 0.00 75 1013.1
20260504081149 95 0 0.0 0.0 0.00 0.00 0.00 60 1013.1
20260504070207 97 67 0.0 0.0 0.00 0.00 0.00 60 1013.1
20260504050323 95 225 8.0 19.0 0.00 0.00 0.00 63 1013.1